Volver al catálogo

FENGYUN 1C DEB

ActivoSSO
NORAD 30231·DEBRIS·🇨🇳 China

Lanzado May 10, 1999 desde Taiyuan Satellite Launch Center

Loading…

Próximos Pases (próximas 24 horas)

TLE

ActualizadoSource: Space-Track

Época: Sep 13, 2026, 15:40 UTC

1 30231U 99025WQ  26256.65302791  .00000654  00000-0  35210-3 0  9997
2 30231  98.7725 300.9670 0126766 329.0540 154.5939 14.12224701  8980

Sigue FENGYUN 1C DEB en tiempo real con AllMySat

Download on the App Store